RYR6QZ LIPY-EPKK

Flight info

Callsign RYR6QZ
Flight time N/A
Altitude 18000
Route KEGED M730 TORPO/N0450F370 DCT KOPRY DCT XOMBA DCT MOCON/N0408F230 M985 MEBAN
Aircraft B38M/M-SDE1FGHILORVWXY/HB1

Departure

Time N/A
Airport Marche Airport (LIPY)

Arrival

Time 2026-05-04 17:30
Airport Kraków John Paul II International Airport (EPKK)
Time Latitude Longitude Altitude Speed Heading
2026-05-04 16:42 45.99221 16.62211 37012 ft 443 kts 40°
2026-05-04 16:43 46.03677 16.68301 37020 ft 443 kts 40°
2026-05-04 16:43 46.10367 16.77469 37013 ft 442 kts 40°
2026-05-04 16:45 46.23662 16.95741 37016 ft 440 kts 39°
2026-05-04 16:46 46.31647 17.01461 37009 ft 432 kts 15°
2026-05-04 16:46 46.37115 17.05072 37032 ft 435 kts 30°
2026-05-04 16:47 46.47874 17.12970 37012 ft 434 kts 24°
2026-05-04 16:48 46.58699 17.20722 36991 ft 433 kts 24°
2026-05-04 16:49 46.69494 17.28436 36994 ft 433 kts 24°
2026-05-04 16:50 46.80316 17.36204 36998 ft 433 kts 24°
2026-05-04 16:51 46.88389 17.42021 37002 ft 433 kts 24°
2026-05-04 16:52 46.99189 17.49835 37010 ft 432 kts 24°
2026-05-04 16:53 47.07274 17.55708 37003 ft 432 kts 24°
2026-05-04 16:54 47.18033 17.63553 36999 ft 432 kts 24°
2026-05-04 16:55 47.34112 17.75600 37000 ft 433 kts 29°
2026-05-04 16:56 47.47031 17.86759 36999 ft 432 kts 28°
2026-05-04 16:57 47.54841 17.93459 36999 ft 432 kts 28°
2026-05-04 16:58 47.65249 18.02423 36999 ft 432 kts 28°
2026-05-04 17:00 47.80805 18.15901 37015 ft 432 kts 28°
2026-05-04 17:01 47.93784 18.27217 37025 ft 432 kts 28°
2026-05-04 17:02 48.04123 18.36280 37021 ft 432 kts 28°
2026-05-04 17:03 48.11910 18.43134 37023 ft 433 kts 28°
2026-05-04 17:03 48.19704 18.50018 37023 ft 434 kts 28°
2026-05-04 17:04 48.30111 18.59249 37029 ft 434 kts 28°
2026-05-04 17:05 48.40499 18.68507 37035 ft 435 kts 29°
2026-05-04 17:06 48.48288 18.75478 37039 ft 436 kts 29°
2026-05-04 17:07 48.54389 18.80957 37041 ft 436 kts 29°
2026-05-04 17:07 48.61305 18.87185 37040 ft 436 kts 29°
2026-05-04 17:08 48.69036 18.94172 35518 ft 432 kts 29°
2026-05-04 17:08 48.71594 18.96489 34734 ft 434 kts 30°
2026-05-04 17:09 48.74190 18.98844 33967 ft 435 kts 30°
2026-05-04 17:09 48.76794 19.01208 33099 ft 436 kts 30°
2026-05-04 17:09 48.79391 19.03569 32267 ft 436 kts 30°
2026-05-04 17:10 48.83714 19.07505 30920 ft 438 kts 30°
2026-05-04 17:10 48.92449 19.15483 28214 ft 437 kts 30°
2026-05-04 17:11 48.94202 19.17089 27762 ft 435 kts 30°
2026-05-04 17:11 48.96786 19.19457 27120 ft 431 kts 30°
2026-05-04 17:11 49.01880 19.24136 25838 ft 423 kts 30°
2026-05-04 17:12 49.04351 19.26409 25223 ft 420 kts 30°
2026-05-04 17:12 49.09325 19.30994 23978 ft 416 kts 30°
2026-05-04 17:13 49.16717 19.37826 22139 ft 407 kts 30°
2026-05-04 17:14 49.23872 19.44463 20521 ft 397 kts 30°
2026-05-04 17:14 49.26188 19.46615 19967 ft 395 kts 30°
2026-05-04 17:14 49.30828 19.50936 18955 ft 390 kts 30°
2026-05-04 17:15 49.33145 19.53098 18471 ft 388 kts 30°
2026-05-04 17:15 49.37734 19.57385 17387 ft 384 kts 31°
2026-05-04 17:16 49.42270 19.61634 16373 ft 379 kts 31°
2026-05-04 17:16 49.49090 19.67474 14879 ft 372 kts 27°
2026-05-04 17:17 49.51391 19.69317 14388 ft 371 kts 27°
2026-05-04 17:17 49.58191 19.74827 12888 ft 366 kts 28°
2026-05-04 17:18 49.60434 19.76651 12400 ft 364 kts 28°
2026-05-04 17:18 49.64864 19.80260 11648 ft 354 kts 28°
2026-05-04 17:19 49.68650 19.83349 11238 ft 336 kts 28°
2026-05-04 17:19 49.72644 19.86614 10779 ft 317 kts 28°
2026-05-04 17:20 49.76436 19.89722 10536 ft 298 kts 28°
2026-05-04 17:20 49.80010 19.92654 10148 ft 287 kts 28°
2026-05-04 17:20 49.81774 19.94105 9855 ft 286 kts 28°
2026-05-04 17:21 49.85281 19.96990 9214 ft 284 kts 28°
2026-05-04 17:21 49.88707 19.99813 8828 ft 273 kts 28°
2026-05-04 17:22 49.90371 20.01186 8571 ft 270 kts 28°
2026-05-04 17:22 49.92016 20.02548 8265 ft 269 kts 28°
2026-05-04 17:23 49.96962 20.06641 7392 ft 267 kts 28°
2026-05-04 17:23 49.98602 20.08000 7094 ft 267 kts 28°
2026-05-04 17:23 50.01843 20.10685 6706 ft 257 kts 27°
2026-05-04 17:24 50.03461 20.11675 6502 ft 251 kts
2026-05-04 17:24 50.08202 20.10324 6117 ft 218 kts 346°
2026-05-04 17:25 50.09658 20.09724 5781 ft 216 kts 331°
2026-05-04 17:25 50.11298 20.06130 5123 ft 208 kts 276°
2026-05-04 17:26 50.10959 20.01704 4410 ft 205 kts 256°
2026-05-04 17:26 50.10070 19.95277 3457 ft 194 kts 257°
2026-05-04 17:27 50.09580 19.91639 2930 ft 153 kts 257°
2026-05-04 17:27 50.09162 19.88574 2469 ft 142 kts 256°
2026-05-04 17:28 50.08786 19.85817 2069 ft 141 kts 256°
2026-05-04 17:29 50.08156 19.81304 1014 ft 141 kts 257°
2026-05-04 17:29 50.07682 19.77841 789 ft 57 kts 258°
2026-05-04 17:30 50.07498 19.76854 797 ft 14 kts 187°
2026-05-04 17:31 50.07311 19.76958 791 ft 13 kts 99°
2026-05-04 17:31 50.07374 19.77429 791 ft 19 kts 78°
2026-05-04 17:32 50.07442 19.77923 791 ft 27 kts 77°
2026-05-04 17:33 50.07576 19.78885 791 ft 33 kts 78°
2026-05-04 17:33 50.07626 19.79247 791 ft 35 kts 77°
2026-05-04 17:34 50.07612 19.79901 791 ft 15 kts 168°
2026-05-04 17:34 50.07551 19.79920 791 ft 1 kts 168°
2026-05-04 17:35 50.07406 19.80055 791 ft 13 kts 79°
2026-05-04 17:35 50.07366 19.80198 791 ft 6 kts 168°
2026-05-04 17:35 50.07336 19.80208 791 ft 1 kts 168°
2026-05-04 17:36 50.07335 19.80208 791 ft 0 kts 168°